Regional Weather Roundup
Issued by NWS

Home | Current Version | Previous Version | Text Only | Print | Product List | Glossary Off
Versions: 1 2 3 4 5 6 7 8 9 10 11 12 13 14 15 16 17 18 19 20 21 22 23 24 25 26 27 28 29 30 31 32 33 34 35 36 37 38 39 40 41 42 43 44 45 46 47 48 49 50

000
ASUS44 KMEG 300400
RWRTN
TENNESSEE HOURLY STATE WEATHER ROUNDUP
NATIONAL WEATHER SERVICE MEMPHIS TN
1100 PM CDT MON SEP 29 2014

TNZ002-004-019-021-049-052-054-088>092-300500-
WEST TENNESSEE

CITY           SKY/WX    TMP DP  RH WIND       PRES   REMARKS
MEMPHIS INTL   CLEAR     70  60  70 CALM      29.95S
NWS MEMPHIS      N/A     65 N/A N/A MISG        N/A
JACKSON        CLEAR     64  62  93 CALM      29.96R
DYERSBURG      CLEAR     64  52  63 CALM      29.97R
UNION CITY     CLEAR     61  59  94 CALM      29.95S
PARIS          CLEAR     57  55  94 CALM      29.97S
SAVANNAH       CLEAR     61  61 100 CALM      29.96S
$$

TNZ008-025-027-028-033-062-065-066-300500-
NORTH MIDDLE TENNESSEE

CITY           SKY/WX    TMP DP  RH WIND       PRES   REMARKS
NASHVILLE      MOCLDY    68  61  78 S3        29.96S
CLARKSVILLE    CLEAR     63  59  87 CALM      29.96R
COOKEVILLE     CLEAR     59  59 100 CALM      29.97F
CROSSVILLE     CLEAR     63  58  83 CALM      30.02S
$$

TNZ061-075-076-078-094-096-097-300500-
SOUTH MIDDLE TENNESSEE

CITY           SKY/WX    TMP DP  RH WIND       PRES   REMARKS
WINCHESTER     CLEAR     61  59  94 CALM      29.98S
SHELBYVILLE    CLEAR     64  61  88 E3        29.97F
$$

TNZ017-018-042-046-047-300500-
NORTHEAST TENNESSEE

CITY           SKY/WX    TMP DP  RH WIND       PRES   REMARKS
TRI CITIES     MOCLDY    59  56  89 CALM      30.00S
ELIZABETHTON   CLEAR     57  55  94 CALM      30.01S
$$

TNZ012-013-036-069-073-074-300500-
CENTRAL EAST TENNESSEE

CITY           SKY/WX    TMP DP  RH WIND       PRES   REMARKS
KNOXVILLE      CLEAR     65  61  87 CALM      29.96F
OAK RIDGE      CLEAR     64  62  93 CALM      29.98F
GATLINBURG     CLEAR     61  57  88 CALM      29.97F
$$

TNZ083-085-099-300500-
SOUTHEAST TENNESSEE

CITY           SKY/WX    TMP DP  RH WIND       PRES   REMARKS
CHATTANOOGA    CLEAR     67  63  87 CALM      29.97S
$$

SKY/WX REPORTED AS FAIR MEANS FEW OR NO CLOUDS BELOW
12 THOUSAND FEET.



USA.gov is the U.S. government's official web portal to all federal, state and local government web resources and services.